CW0728 Weather Reports


Display with metric or nautical units.
time (UTC)temp
F
wind
direction
speed
MPH
gust
MPH
rain 1hr
in
rain 24hr
in
rain mn
in
humidity
%
barometer
mb
20211202065518 29 271 0.0 0.0 0.00 0.00 0.00 81 1016.0
20211202064518 29 271 0.0 0.0 0.00 0.00 0.00 81 1016.0
20211202064018 29 271 0.0 0.0 0.00 0.00 0.00 81 1016.0
20211202063518 29 271 0.0 0.0 0.00 0.00 0.00 81 1016.0
20211202062518 29 271 0.0 0.0 0.00 0.00 0.00 80 1016.1
20211202061018 29 271 0.0 1.0 0.00 0.00 0.00 80 1016.3
20211202060518 29 271 0.0 0.0 0.00 0.00 0.00 79 1016.3
20211202060018 29 271 0.0 0.0 0.00 0.00 0.00 79 1016.3
20211202055518 29 271 0.0 0.0 0.00 0.00 0.00 79 1016.3
20211202054518 29 271 0.0 0.0 0.00 0.00 0.00 78 1016.3
20211202052518 29 271 0.0 0.0 0.00 0.00 0.00 76 1016.7
20211202052018 30 271 0.0 0.0 0.00 0.00 0.00 76 1016.7
20211202050518 30 271 0.0 0.0 0.00 0.00 0.00 76 1016.7
20211202050018 30 271 0.0 0.0 0.00 0.00 0.00 75 1016.7
20211202045018 30 271 0.0 0.0 0.00 0.00 0.00 74 1017.0
20211202044518 30 271 0.0 1.0 0.00 0.00 0.00 74 1017.0
20211202042518 31 271 0.0 1.0 0.00 0.00 0.00 73 1017.3
20211202042018 31 271 0.0 1.0 0.00 0.00 0.00 73 1017.3
20211202041018 31 271 0.0 0.0 0.00 0.00 0.00 72 1017.4
20211202040018 31 271 0.0 0.0 0.00 0.00 0.00 72 1017.4
20211202035518 32 271 0.0 0.0 0.00 0.00 0.00 72 1017.9
20211202035018 32 271 0.0 0.0 0.00 0.00 0.00 71 1017.9
20211202034018 32 271 0.0 0.0 0.00 0.00 0.00 71 1018.0
20211202033518 32 271 0.0 0.0 0.00 0.00 0.00 71 1018.0
20211202033018 32 271 0.0 0.0 0.00 0.00 0.00 71 1018.0
20211202032518 32 271 0.0 0.0 0.00 0.00 0.00 71 1018.2
20211202032018 32 271 0.0 0.0 0.00 0.00 0.00 71 1018.2
20211202031018 32 271 0.0 0.0 0.00 0.00 0.00 70 1018.1
20211202025518 32 271 0.0 0.0 0.00 0.00 0.00 69 1018.3
20211202025018 32 271 0.0 0.0 0.00 0.00 0.00 69 1018.3
20211202022018 33 271 0.0 1.0 0.00 0.00 0.00 67 1018.6
20211202015518 34 271 0.0 1.0 0.00 0.00 0.00 66 1019.0
20211202015018 34 271 0.0 1.0 0.00 0.00 0.00 65 1019.0
20211202014518 34 271 0.0 0.0 0.00 0.00 0.00 65 1019.0
20211202014018 34 277 1.0 1.0 0.00 0.00 0.00 65 1018.5
20211202013518 34 277 0.0 1.0 0.00 0.00 0.00 64 1018.5
20211202012518 34 277 0.0 2.0 0.00 0.00 0.00 64 1018.3
20211202011518 34 277 2.0 2.0 0.00 0.00 0.00 64 1018.3
20211202011018 35 277 1.0 3.0 0.00 0.00 0.00 63 1018.4
20211202005518 35 0 1.0 3.0 0.00 0.00 0.00 63 1018.2
20211202003018 35 10 0.0 0.0 0.00 0.00 0.00 63 1018.3
20211202001518 34 287 1.0 1.0 0.00 0.00 0.00 64 1018.0
20211202001018 34 210 1.0 2.0 0.00 0.00 0.00 66 1018.3
20211202000018 34 79 0.0 1.0 0.00 0.00 0.00 66 1018.3
20211201235518 34 34 1.0 3.0 0.00 0.00 0.00 66 1017.8
20211201235018 34 0 2.0 2.0 0.00 0.00 0.00 68 1017.8
20211201234518 34 6 1.0 1.0 0.00 0.00 0.00 68 1017.8
20211201234018 34 48 3.0 3.0 0.00 0.00 0.00 67 1017.7
20211201233018 34 306 0.0 0.0 0.00 0.00 0.00 65 1017.7
20211201232518 34 306 0.0 2.0 0.00 0.00 0.00 65 1017.8
20211201231518 35 306 0.0 0.0 0.00 0.00 0.00 65 1017.8
20211201230518 35 306 0.0 2.0 0.00 0.00 0.00 64 1017.2
20211201230018 36 203 0.0 1.0 0.00 0.00 0.00 64 1017.2
20211201225518 36 158 1.0 2.0 0.00 0.00 0.00 63 1017.5
20211201224518 37 158 2.0 2.0 0.00 0.00 0.00 61 1017.5
20211201224018 37 254 0.0 2.0 0.00 0.00 0.00 60 1017.0
20211201222518 38 222 0.0 2.0 0.00 0.00 0.00 58 1016.8
20211201220518 39 222 1.0 2.0 0.00 0.00 0.00 55 1016.8
20211201214518 40 185 1.0 1.0 0.00 0.00 0.00 53 1016.7
20211201214018 40 247 0.0 4.0 0.00 0.00 0.00 54 1016.2
20211201213518 40 250 1.0 4.0 0.00 0.00 0.00 53 1016.2
20211201212518 41 330 1.0 5.0 0.00 0.00 0.00 53 1016.0
20211201212018 41 257 2.0 4.0 0.00 0.00 0.00 53 1016.0
20211201210018 42 248 2.0 2.0 0.00 0.00 0.00 49 1015.8
20211201205518 42 234 5.0 7.0 0.00 0.00 0.00 49 1015.6
20211201205028 43 17 1.0 3.0 0.00 0.00 0.00 49 1015.6
20211201204518 43 296 0.0 0.0 0.00 0.00 0.00 49 1015.6
20211201204018 43 313 3.0 9.0 0.00 0.00 0.00 51 1015.3
20211201203518 44 220 5.0 5.0 0.00 0.00 0.00 51 1015.3
20211201203018 44 265 1.0 1.0 0.00 0.00 0.00 51 1015.3
20211201201518 45 222 1.0 1.0 0.00 0.00 0.00 49 1015.1
20211201195518 46 281 1.0 5.0 0.00 0.00 0.00 48 1014.7
20211201194018 45 329 3.0 9.0 0.00 0.00 0.00 49 1014.5
20211201193018 44 261 1.0 2.0 0.00 0.00 0.00 48 1014.5
20211201191018 45 296 4.0 5.0 0.00 0.00 0.00 49 1014.3
20211201190018 45 353 1.0 1.0 0.00 0.00 0.00 49 1014.3
20211201184018 45 305 2.0 6.0 0.00 0.00 0.00 53 1014.1
20211201183518 45 260 2.0 5.0 0.00 0.00 0.00 54 1014.1
20211201183018 45 353 2.0 2.0 0.00 0.00 0.00 54 1014.1
20211201182518 45 140 5.0 6.0 0.00 0.00 0.00 54 1013.9
20211201182018 45 347 3.0 6.0 0.00 0.00 0.00 54 1013.9
20211201181518 45 248 2.0 6.0 0.00 0.00 0.00 55 1013.9
20211201181018 45 336 3.0 6.0 0.00 0.00 0.00 54 1013.7
20211201175018 45 322 3.0 7.0 0.00 0.00 0.00 55 1013.8
20211201174018 45 323 5.0 7.0 0.00 0.00 0.00 54 1013.8
20211201173018 46 329 1.0 3.0 0.00 0.00 0.00 55 1013.8
20211201172518 46 323 7.0 12.0 0.00 0.00 0.00 55 1013.8
20211201171518 46 265 2.0 2.0 0.00 0.00 0.00 58 1013.8
20211201171018 46 329 4.0 10.0 0.00 0.00 0.00 58 1013.9
20211201170518 45 17 2.0 10.0 0.00 0.00 0.00 59 1013.9
20211201164018 45 289 2.0 11.0 0.00 0.00 0.00 57 1013.9
20211201163518 46 250 2.0 10.0 0.00 0.00 0.00 57 1013.9
20211201163018 46 256 6.0 6.0 0.00 0.00 0.00 56 1013.9
20211201162518 46 256 3.0 7.0 0.00 0.00 0.00 58 1013.9
20211201162018 45 335 3.0 6.0 0.00 0.00 0.00 58 1013.9
20211201161518 45 254 3.0 3.0 0.00 0.00 0.00 59 1013.9
20211201161018 44 263 5.0 11.0 0.00 0.00 0.00 60 1013.9
20211201160518 44 220 2.0 11.0 0.00 0.00 0.00 59 1013.9
20211201160018 44 264 3.0 5.0 0.00 0.00 0.00 60 1013.9
20211201155518 44 223 3.0 10.0 0.00 0.00 0.00 60 1014.0
20211201154518 44 288 2.0 2.0 0.00 0.00 0.00 62 1014.0
20211201154018 43 337 3.0 4.0 0.00 0.00 0.00 63 1014.0
20211201153518 42 294 2.0 4.0 0.00 0.00 0.00 67 1014.0
20211201152018 41 274 2.0 6.0 0.00 0.00 0.00 69 1014.0
20211201151518 40 295 2.0 3.0 0.00 0.00 0.00 69 1014.0
20211201150518 39 306 2.0 5.0 0.00 0.00 0.00 72 1014.1
20211201150018 38 236 5.0 5.0 0.00 0.00 0.00 73 1014.1
20211201145518 38 229 1.0 5.0 0.00 0.00 0.00 73 1014.1
20211201144518 37 208 2.0 2.0 0.00 0.00 0.00 75 1014.1
20211201143518 37 244 1.0 6.0 0.00 0.00 0.00 76 1014.0
20211201143018 37 326 4.0 4.0 0.00 0.00 0.00 77 1014.0
20211201142518 36 254 1.0 9.0 0.00 0.00 0.00 77 1013.8
20211201142018 36 251 0.0 9.0 0.00 0.00 0.00 78 1013.8
20211201141018 35 237 3.0 5.0 0.00 0.00 0.00 80 1013.6
20211201140518 35 244 2.0 5.0 0.00 0.00 0.00 81 1013.6
20211201140018 34 244 1.0 1.0 0.00 0.00 0.00 81 1013.6
20211201135518 34 309 2.0 4.0 0.00 0.00 0.00 82 1013.6
20211201133018 32 247 1.0 1.0 0.00 0.00 0.00 85 1013.4
20211201132018 32 251 2.0 3.0 0.00 0.00 0.00 86 1013.1
20211201131518 31 251 1.0 2.0 0.00 0.00 0.00 86 1013.1
20211201130018 30 264 1.0 1.0 0.00 0.00 0.00 88 1013.4
20211201124018 29 233 1.0 3.0 0.00 0.00 0.00 88 1013.1
20211201123518 29 215 0.0 3.0 0.00 0.00 0.00 88 1013.1
20211201123018 29 215 0.0 1.0 0.00 0.00 0.00 88 1013.1
20211201121518 28 264 0.0 1.0 0.00 0.00 0.00 88 1012.8
20211201120018 28 280 0.0 1.0 0.00 0.00 0.00 87 1012.7
20211201115518 28 282 0.0 0.0 0.00 0.00 0.00 87 1012.5
20211201115018 28 282 0.0 0.0 0.00 0.00 0.00 87 1012.5
20211201113518 29 282 0.0 0.0 0.00 0.00 0.00 88 1012.5
20211201112518 28 282 0.0 0.0 0.00 0.00 0.00 88 1012.3
20211201112018 28 282 0.0 0.0 0.00 0.00 0.00 88 1012.3
20211201111518 28 282 0.0 0.0 0.00 0.00 0.00 88 1012.3
20211201110518 28 282 0.0 0.0 0.00 0.00 0.00 88 1012.1
20211201105518 28 282 0.0 0.0 0.00 0.00 0.00 88 1012.0
20211201104018 28 282 0.0 1.0 0.00 0.00 0.00 88 1011.7
20211201103518 28 282 0.0 0.0 0.00 0.00 0.00 88 1011.7
20211201102018 27 282 0.0 1.0 0.00 0.00 0.00 88 1011.7
20211201101518 27 282 0.0 0.0 0.00 0.00 0.00 88 1011.7
20211201100518 27 282 0.0 0.0 0.00 0.00 0.00 87 1011.5
20211201100018 27 282 0.0 0.0 0.00 0.00 0.00 87 1011.5
20211201095518 27 282 0.0 0.0 0.00 0.00 0.00 87 1011.3
20211201094018 27 282 0.0 0.0 0.00 0.00 0.00 86 1011.4
20211201093518 27 282 0.0 0.0 0.00 0.00 0.00 86 1011.4
20211201093018 27 282 0.0 0.0 0.00 0.00 0.00 86 1011.4
20211201091518 27 282 0.0 0.0 0.00 0.00 0.00 85 1011.2
20211201091018 27 282 0.0 0.0 0.00 0.00 0.00 85 1011.1
20211201090518 27 282 0.0 0.0 0.00 0.00 0.00 85 1011.1
20211201090018 26 282 0.0 0.0 0.00 0.00 0.00 85 1011.1
20211201083518 26 282 0.0 0.0 0.00 0.00 0.00 84 1010.8
20211201083018 26 282 0.0 0.0 0.00 0.00 0.00 84 1010.8
20211201082518 26 282 0.0 0.0 0.00 0.00 0.00 83 1010.8
20211201082018 27 282 0.0 0.0 0.00 0.00 0.00 83 1010.8
20211201081018 27 282 0.0 0.0 0.00 0.00 0.00 82 1010.8
20211201073518 28 282 0.0 0.0 0.00 0.00 0.00 80 1010.7
20211201073018 28 282 0.0 0.0 0.00 0.00 0.00 80 1010.7
20211201072518 28 282 0.0 0.0 0.00 0.00 0.00 80 1010.6
20211201072018 29 282 0.0 0.0 0.00 0.00 0.00 80 1010.6
20211201071018 29 282 0.0 0.0 0.00 0.00 0.00 79 1010.4
20211201070518 29 282 0.0 0.0 0.00 0.00 0.00 78 1010.4